TimeCDT,TemperatureF,Dew PointF,Humidity,Sea Level PressureIn,VisibilityMPH,Wind Direction,Wind SpeedMPH,Gust SpeedMPH,PrecipitationIn,Events,Conditions,WindDirDegrees,DateUTC
12:53 AM,71.1,64.9,81,29.92,10.0,SSE,4.6,-,N/A,,Mostly Cloudy,150,2013-05-19 05:53:00
1:53 AM,70.0,66.0,87,29.91,10.0,SE,3.5,-,N/A,,Mostly Cloudy,140,2013-05-19 06:53:00
2:53 AM,71.1,68.0,90,29.89,9.0,SSE,5.8,-,N/A,,Overcast,160,2013-05-19 07:53:00
3:53 AM,70.0,68.0,93,29.89,6.0,South,3.5,-,N/A,,Overcast,170,2013-05-19 08:53:00
4:53 AM,71.1,69.1,93,29.89,4.0,South,3.5,-,N/A,,Partly Cloudy,180,2013-05-19 09:53:00
5:39 AM,69.8,68.0,94,29.90,2.0,Calm,Calm,-,N/A,,Scattered Clouds,0,2013-05-19 10:39:00
5:53 AM,70.0,69.1,97,29.89,1.2,Calm,Calm,-,N/A,,Mostly Cloudy,0,2013-05-19 10:53:00
5:59 AM,69.8,69.8,100,29.90,1.2,Calm,Calm,-,N/A,,Mostly Cloudy,0,2013-05-19 10:59:00
6:32 AM,71.6,69.8,94,29.92,1.8,Calm,Calm,-,N/A,,Overcast,0,2013-05-19 11:32:00
6:40 AM,71.6,69.8,94,29.92,2.0,Calm,Calm,-,N/A,,Overcast,0,2013-05-19 11:40:00
6:53 AM,71.6,69.8,94,29.93,2.0,Calm,Calm,-,N/A,,Overcast,0,2013-05-19 11:53:00
7:53 AM,73.9,71.1,91,29.92,3.0,South,4.6,-,0.00,,Partly Cloudy,170,2013-05-19 12:53:00
8:53 AM,78.1,72.0,81,29.93,6.0,SW,9.2,-,N/A,,Haze,230,2013-05-19 13:53:00
9:53 AM,81.0,73.0,77,29.92,7.0,SW,9.2,-,N/A,,Clear,230,2013-05-19 14:53:00
10:53 AM,84.0,72.0,67,29.92,8.0,SSW,9.2,-,N/A,,Clear,210,2013-05-19 15:53:00
11:53 AM,86.0,72.0,63,29.91,8.0,SW,9.2,-,N/A,,Scattered Clouds,220,2013-05-19 16:53:00
12:53 PM,86.0,72.0,63,29.88,9.0,SSW,10.4,17.3,N/A,,Partly Cloudy,210,2013-05-19 17:53:00
1:53 PM,87.8,68.0,52,29.88,10.0,SSW,10.4,18.4,N/A,,Clear,200,2013-05-19 18:53:00
2:53 PM,87.8,69.8,55,29.88,10.0,SSW,9.2,19.6,N/A,,Clear,210,2013-05-19 19:53:00
3:53 PM,84.9,70.0,61,29.86,10.0,SW,4.6,-,N/A,,Clear,220,2013-05-19 20:53:00
4:53 PM,84.9,68.0,57,29.85,10.0,South,9.2,-,N/A,,Clear,170,2013-05-19 21:53:00
5:53 PM,84.0,69.1,61,29.83,10.0,South,10.4,-,N/A,,Clear,180,2013-05-19 22:53:00
6:53 PM,82.0,66.9,60,29.83,10.0,South,9.2,-,N/A,,Clear,170,2013-05-19 23:53:00
7:53 PM,80.1,66.9,64,29.82,10.0,South,9.2,-,N/A,,Clear,170,2013-05-20 00:53:00
8:53 PM,79.0,66.9,66,29.84,10.0,South,9.2,-,N/A,,Clear,170,2013-05-20 01:53:00
9:53 PM,78.1,68.0,71,29.86,10.0,South,10.4,18.4,N/A,,Clear,180,2013-05-20 02:53:00
10:53 PM,78.1,69.1,74,29.87,10.0,South,9.2,-,N/A,,Clear,180,2013-05-20 03:53:00
11:53 PM,77.0,69.1,76,29.88,10.0,South,8.1,19.6,N/A,,Clear,190,2013-05-20 04:53:00